Regional Weather Roundup
Issued by NWS Charleston, SC

Current Version | Previous Version | Graphics & Text | Print | Product List | Glossary On
Versions: 1 2 3 4 5 6 7 8 9 10 11 12 13 14 15 16 17 18 19 20 21 22 23 24 25 26 27 28 29 30 31 32 33 34 35 36 37 38 39 40 41 42 43 44 45 46 47 48 49 50
000
ASUS42 KCHS 261025
RWRCHS

REGIONAL WEATHER ROUNDUP
NATIONAL WEATHER SERVICE CHARLESTON SC
500 AM EST FRI DEC 26 2014

NOTE: "FAIR" INDICATES FEW OR NO CLOUDS BELOW 12,000 FEET WITH NO
SIGNIFICANT WEATHER AND/OR OBSTRUCTIONS TO VISIBILITY.

NOT ALL STATIONS ARE QUALITY CONTROLLED BY THE NATIONAL
WEATHER SERVICE. USE DATA WITH CAUTION...ESPECIALLY
DEWPOINT OBSERVATIONS.

SCZ027-030-031-034>040-042>050-261100-
...SOUTHEAST SOUTH CAROLINA...

CITY           SKY/WX    TMP DP  RH WIND       PRES   REMARKS
N CHARLESTON   CLEAR     36  35  96 NW3       30.27S
WATERFRONT PRK   N/A     46 N/A N/A CALM        N/A
MOUNT PLEASANT FAIR      37  37 100 CALM      30.27S
PINOPOLIS      NOT AVBL
MONCKS CORNER  FAIR      37  36  93 CALM      30.27S
SUMMERVILLE    FOG       36  36 100 CALM      30.29R VSB 1/4
BEAUFORT MCAS  CLEAR     38  35  89 CALM      30.27S
BEAUFORT ARPT  FAIR      41  41 100 CALM      30.27R
HILTON HEAD IS NOT AVBL
WALTERBORO     SUNNY     34 N/A N/A CALM      30.29R
ALLENDALE      FAIR      36  36 100 CALM      30.28R

...SOUTHERN MIDLANDS AND PEE DEE...

CITY           SKY/WX    TMP DP  RH WIND       PRES   REMARKS
GEORGETOWN     NOT AVBL
KINGSTREE      NOT AVBL
ORANGEBURG     CLEAR     36  33  89 CALM      30.28S FOG
BARNWELL         N/A     32  32 100 CALM      30.29R
AIKEN          FAIR      32  32 100 CALM      30.30S
MANNING        FAIR      34 N/A N/A CALM      30.28R
COLUMBIA       PTCLDY    33  30  88 CALM      30.28R
SUMTER         PTCLDY    36  32  87 SW1       30.27R
FLORENCE       CLEAR     37  34  89 N3        30.28R
MYRTLE BEACH   CLEAR     39  36  87 CALM      30.27S
N MYRTLE BEACH CLEAR     37  35  92 CALM      30.27R FOG

$$

GAZ063-065-086>088-099>101-113>116-118-119-134>141-150-261100-
...SOUTHEAST GEORGIA...

CITY           SKY/WX    TMP DP  RH WIND       PRES   REMARKS
SAVANNAH ARPT  CLEAR     37  35  92 CALM      30.27F FOG
HUNTER AAF     CLEAR     37  37 100 W2        30.25S
FORT STEWART   PTCLDY    35  34  95 CALM      30.26S
STATESBORO     PTCLDY    33  33 100 CALM      30.28S FOG
SYLVANIA       MOSUNNY   35  35 100 CALM      30.29R
CLAXTON          N/A     34  34 100 CALM      30.28S FOG

...CSRA...CENTRAL AND FAR SOUTHEAST GEORGIA...

CITY           SKY/WX    TMP DP  RH WIND       PRES   REMARKS
THOMSON        PTCLDY    31  31 100 CALM      30.32S
AUGUSTA-BUSH   FOG       31  31 100 CALM      30.29S VSB 1/4
AUGUSTA-DANIEL FAIR      39  37  92 CALM      30.28S
SWAINSBORO     FAIR      34  34 100 CALM      30.28R
VIDALIA        PTCLDY    36  36 100 CALM      30.28R
EASTMAN        FOG       32  32 100 CALM      30.31R VSB 1/4
HAZLEHURST     FAIR      38  38 100 CALM      30.27R FOG
ALMA           CLEAR     35  34  96 CALM      30.27R FOG
WAYCROSS       CLEAR     39  39  98 CALM      30.27S
JESUP          FAIR      36  36 100 CALM      30.28R
BAXLEY         FAIR      39  37  93 CALM      30.27R
BRUNSWICK        N/A     36  36 100 CALM      30.28S
SAINT SIMONS   CLEAR     41  39  93 CALM      30.27R

$$

SCZ027-028-034-036>038-045-046-048>050-GAZ119-141-261100-
...LAKE AND SUPPLEMENTAL COASTAL OBSERVATIONS...

STATION/POSITION TIME  TEMP    WIND        PRES    WAVE   SWELL
                       AIR SEA DIR/SP/G            HT/PER HT/PER/DIR
                 (UTC) (F)     (DEG/KT/KT) (MB)    (FT/S) (FT/S/D)
UPR LAKE MARION  NOT AVBL
WINYAH BAY       1000   39     320/  3     1024.0S
LAKE MURRAY      1000   39      CALM  /  2 1025.1S
ACE BASIN NERRS  NOT AVBL
FORT PULASKI     1000   44 56  250/  1/  2 1025.2F
SAPELO ISLAND    1000   41      20/  1     1025.0R

$$

ANZ835-935-AMZ111-154-330-350-352-354-370-450-454-472-261100-
...C-MAN AND BUOY OBSERVATIONS...

STATION/POSITION TIME  TEMP    WIND        PRES    WAVE   SWELL
                       AIR SEA DIR/SP/G            HT/PER HT/PER/DIR
                 (UTC) (F)     (DEG/KT/KT) (MB)    (FT/S) (FT/S/D)
BUOY 41004       1000   60 71   40/  6/  8 1023.9F   2/ 7   2/ 7
BUOY 41008       1000   56 58   50/  8/ 10 1024.5S   1/ 8   2/130/ 8
FOLLY BEACH CMAN 1000   46     340/  3/  3 1025.0F
CAPERS NEARSHORE 0900   51      40/  8/ 10   N/A
FRIPP NEARSHORE  NOT AVBL


STATION/POSITION TIME  TEMP    WIND        PRES    WAVE   SWELL
                       AIR SEA DIR/SP/G            HT/PER HT/PER/DIR
                 (UTC) (F)     (DEG/KT/KT) (MB)    (FT/S) (FT/S/D)
5E ST. MARYS GA  0900      61                N/A     2/10
FRYING PAN BUOY  1000   58 69   50/  8/ 12 1025.0F   3/ 7   2/170/ 7
BUOY 41025       1000   54                 1024.7R   4/ 8
CAPE LOOKOUT NC  1000   50      20/  7/  8 1024.8R
BUOY 41002       0932   67 72   40/ 10/ 12 1023.4S   6/ 7   7/260/ 7
BUOY 41010       1000   69 77   30/ 10/ 16 1022.4S   3/ 7
ST AUGUSTINE FL  1000   59      30/  5/  6 1024.4S


$$


USA.gov is the U.S. government's official web portal to all federal, state and local government web resources and services.